QPF
0.04 0.05 0.05 0.05 0.04 0.05 0.06 0.06 0.06 0.06 0.06 0.05 0.04 0.03 0.04 0.04 0.04 0.06 0.08 0.07 0.08 0.06 0.06 0.06 0.05 0.04 0.03 0.02 0.02 0.02 0.03 0.06 0.05 0.03 0.03 0.03 0.02 0.02 0.02 0.03 0.03 0.02 0.02
0.04 0.04 0.05 0.06 0.05 0.05 0.04 0.04 0.05 0.06 0.08 0.07 0.07 0.05 0.03 0.04 0.03 0.05 0.06 0.07 0.07 0.04 0.04 0.05 0.06 0.06 0.05 0.04 0.04 0.03 0.04 0.05 0.04 0.03 0.03 0.03 0.03 0.03 0.03 0.04 0.04 0.03 0.03
0.04 0.04 0.04 0.06 0.06 0.06 0.05 0.04 0.06 0.07 0.07 0.07 0.07 0.05 0.04 0.05 0.04 0.04 0.04 0.05 0.05 0.03 0.03 0.04 0.05 0.06 0.06 0.07 0.07 0.06 0.05 0.04 0.04 0.04 0.04 0.03 0.03 0.03 0.04 0.04 0.03 0.03 0.03
0.04 0.05 0.05 0.05 0.07 0.06 0.08 0.08 0.10 0.08 0.06 0.06 0.06 0.05 0.04 0.05 0.03 0.03 0.03 0.03 0.04 0.04 0.05 0.04 0.05 0.06 0.07 0.09 0.11 0.10 0.07 0.07 0.06 0.05 0.05 0.05 0.05 0.05 0.05 0.05 0.04 0.04 0.05
0.04 0.05 0.08 0.09 0.07 0.07 0.08 0.07 0.07 0.08 0.09 0.10 0.06 0.05 0.04 0.04 0.03 0.03 0.03 0.03 0.03 0.05 0.07 0.05 0.04 0.04 0.05 0.07 0.10 0.10 0.10 0.10 0.10 0.08 0.07 0.07 0.06 0.06 0.05 0.04 0.04 0.05 0.05
0.04 0.05 0.07 0.08 0.06 0.08 0.10 0.10 0.11 0.09 0.08 0.10 0.06 0.05 0.04 0.03 0.03 0.04 0.03 0.03 0.03 0.03 0.03 0.04 0.05 0.04 0.03 0.05 0.07 0.09 0.11 0.11 0.08 0.06 0.06 0.06 0.06 0.06 0.04 0.03 0.03 0.03 0.04
0.03 0.06 0.06 0.06 0.06 0.08 0.07 0.07 0.09 0.08 0.07 0.06 0.06 0.05 0.03 0.02 0.02 0.02 0.03 0.04 0.03 0.03 0.02 0.04 0.06 0.06 0.04 0.03 0.04 0.05 0.08 0.10 0.09 0.08 0.07 0.06 0.06 0.06 0.06 0.05 0.04 0.04 0.03
0.04 0.05 0.07 0.06 0.06 0.08 0.08 0.08 0.09 0.09 0.07 0.06 0.07 0.07 0.06 0.03 0.02 0.02 0.02 0.03 0.04 0.05 0.06 0.05 0.06 0.07 0.06 0.07 0.06 0.03 0.05 0.08 0.10 0.10 0.10 0.08 0.07 0.07 0.07 0.06 0.06 0.05 0.04
0.03 0.04 0.06 0.06 0.06 0.06 0.07 0.09 0.07 0.09 0.08 0.06 0.06 0.09 0.09 0.08 0.06 0.04 0.02 0.02 0.03 0.07 0.10 0.09 0.08 0.09 0.09 0.09 0.08 0.06 0.06 0.07 0.09 0.10 0.11 0.09 0.07 0.06 0.06 0.06 0.06 0.06 0.06
0.03 0.02 0.04 0.06 0.06 0.06 0.07 0.06 0.04 0.08 0.09 0.08 0.07 0.07 0.08 0.08 0.08 0.06 0.03 0.03 0.02 0.02 0.04 0.05 0.06 0.09 0.10 0.10 0.09 0.07 0.06 0.06 0.06 0.08 0.10 0.10 0.08 0.06 0.06 0.06 0.07 0.07 0.07
0.03 0.02 0.03 0.04 0.05 0.06 0.08 0.07 0.06 0.09 0.09 0.09 0.08 0.07 0.06 0.06 0.06 0.07 0.06 0.05 0.04 0.04 0.04 0.04 0.03 0.04 0.05 0.06 0.07 0.05 0.04 0.04 0.05 0.06 0.07 0.08 0.09 0.10 0.12 0.13 0.12 0.11 0.12
0.04 0.02 0.02 0.04 0.05 0.06 0.07 0.07 0.07 0.09 0.08 0.07 0.08 0.08 0.08 0.08 0.09 0.10 0.10 0.07 0.07 0.06 0.04 0.04 0.04 0.04 0.03 0.04 0.04 0.03 0.03 0.04 0.05 0.06 0.08 0.09 0.10 0.09 0.13 0.16 0.15 0.15 0.15
0.03 0.03 0.04 0.06 0.08 0.08 0.07 0.06 0.05 0.06 0.06 0.08 0.08 0.07 0.08 0.08 0.09 0.11 0.11 0.08 0.06 0.03 0.04 0.03 0.03 0.03 0.03 0.03 0.03 0.03 0.04 0.07 0.09 0.10 0.11 0.11 0.10 0.08 0.07 0.07 0.07 0.09 0.11
0.02 0.03 0.05 0.07 0.08 0.07 0.05 0.05 0.04 0.04 0.05 0.05 0.04 0.05 0.06 0.05 0.07 0.09 0.10 0.10 0.06 0.05 0.05 0.05 0.04 0.03 0.03 0.03 0.03 0.03 0.03 0.04 0.06 0.08 0.07 0.06 0.05 0.05 0.04 0.04 0.04 0.05 0.05
0.02 0.03 0.04 0.05 0.06 0.05 0.05 0.04 0.03 0.05 0.05 0.04 0.04 0.05 0.05 0.05 0.05 0.06 0.08 0.08 0.08 0.06 0.05 0.05 0.06 0.05 0.04 0.03 0.03 0.03 0.04 0.05 0.04 0.05 0.05 0.05 0.06 0.07 0.07 0.06 0.06 0.07 0.07
0.02 0.03 0.03 0.03 0.03 0.03 0.03 0.03 0.03 0.03 0.03 0.03 0.03 0.05 0.05 0.05 0.04 0.04 0.04 0.05 0.07 0.07 0.05 0.04 0.05 0.05 0.05 0.03 0.03 0.03 0.04 0.05 0.05 0.05 0.06 0.06 0.06 0.08 0.11 0.10 0.09 0.09 0.08
0.02 0.03 0.03 0.03 0.02 0.02 0.01 0.02 0.03 0.02 0.02 0.02 0.03 0.04 0.04 0.05 0.04 0.03 0.04 0.04 0.04 0.04 0.04 0.03 0.04 0.06 0.06 0.06 0.06 0.06 0.05 0.04 0.04 0.04 0.04 0.05 0.06 0.06 0.08 0.10 0.10 0.08 0.06
0.02 0.02 0.01 0.01 0.01 0.01 0.01 0.02 0.02 0.01 0.01 0.02 0.02 0.03 0.03 0.04 0.04 0.05 0.05 0.05 0.05 0.04 0.03 0.03 0.04 0.04 0.04 0.04 0.05 0.04 0.03 0.02 0.02 0.03 0.04 0.05 0.05 0.05 0.05 0.05 0.05 0.04 0.03
0.02 0.02 0.02 0.02 0.01 0.02 0.02 0.01 0.01 0.01 0.01 0.01 0.02 0.02 0.03 0.04 0.04 0.04 0.05 0.05 0.04 0.04 0.04 0.04 0.03 0.02 0.02 0.02 0.02 0.02 0.02 0.02 0.01 0.01 0.02 0.02 0.02 0.02 0.01 0.01 0.01 0.01 0.01
0.03 0.04 0.03 0.01 0.02 0.02 0.02 0.02 0.02 0.02 0.02 0.02 0.02 0.02 0.02 0.03 0.04 0.04 0.04 0.03 0.04 0.04 0.04 0.03 0.02 0.02 0.01 0.01 0.01 0.01 0.02 0.02 0.02 0.01 0.01 0.02 0.02 0.02 0.01 0.01 0.01 0.01 0.01
0.03 0.05 0.02 0.01 0.01 0.02 0.02 0.03 0.03 0.02 0.03 0.03 0.03 0.03 0.03 0.04 0.04 0.04 0.03 0.03 0.03 0.03 0.02 0.02 0.02 0.02 0.03 0.04 0.03 0.03 0.02 0.02 0.02 0.01 0.02 0.02 0.03 0.03 0.03 0.03 0.02 0.02 0.02
0.02 0.01 0.01 0.01 0.01 0.00 0.01 0.01 0.02 0.02 0.02 0.03 0.03 0.02 0.03 0.03 0.02 0.02 0.03 0.02 0.02 0.01 0.01 0.02 0.03 0.04 0.05 0.04 0.04 0.03 0.03 0.03 0.03 0.02 0.02 0.03 0.03 0.03 0.03 0.03 0.03 0.03 0.03
0.02 0.02 0.01 0.01 0.01 0.01 0.01 0.01 0.01 0.01 0.02 0.02 0.02 0.02 0.02 0.02 0.02 0.01 0.01 0.01 0.01 0.01 0.01 0.01 0.01 0.02 0.03 0.03 0.02 0.02 0.03 0.02 0.02 0.02 0.02 0.02 0.02 0.02 0.03 0.03 0.04 0.03 0.02
0.01 0.01 0.01 0.01 0.01 0.01 0.02 0.01 0.01 0.01 0.01 0.01 0.02 0.03 0.03 0.03 0.03 0.02 0.02 0.02 0.02 0.02 0.01 0.01 0.01 0.01 0.01 0.01 0.01 0.02 0.02 0.02 0.02 0.02 0.02 0.01 0.01 0.01 0.01 0.02 0.02 0.02 0.02
0.01 0.01 0.02 0.02 0.03 0.03 0.03 0.04 0.05 0.03 0.03 0.04 0.03 0.03 0.03 0.03 0.04 0.04 0.03 0.03 0.02 0.02 0.01 0.01 0.01 0.01 0.00 0.00 0.01 0.01 0.01 0.01 0.01 0.01 0.01 0.01 0.01 0.01 0.01 0.01 0.01 0.01 0.01
0.02 0.03 0.04 0.06 0.08 0.08 0.08 0.08 0.11 0.09 0.06 0.07 0.07 0.06 0.06 0.05 0.05 0.05 0.04 0.03 0.02 0.01 0.01 0.01 0.00 0.00 0.00 0.00 0.00 0.01 0.01 0.02 0.02 0.01 0.01 0.01 0.01 0.01 0.01 0.01 0.01 0.01 0.00
MSLP
1017.31 1017.42 1017.47 1017.49 1017.48 1017.47 1017.47 1017.48 1017.50 1017.52 1017.53 1017.53 1017.53 1017.54 1017.58 1017.68 1017.86 1018.12 1018.46 1018.84 1019.24 1019.62 1019.94 1020.19 1020.36 1020.46 1020.50 1020.53 1020.55 1020.58 1020.64 1020.72 1020.81 1020.90 1020.98 1021.05 1021.11 1021.16 1021.21 1021.25 1021.29 1021.31 1021.33
1017.35 1017.45 1017.50 1017.50 1017.49 1017.48 1017.47 1017.48 1017.50 1017.52 1017.54 1017.56 1017.57 1017.59 1017.63 1017.71 1017.86 1018.07 1018.35 1018.67 1019.01 1019.34 1019.64 1019.88 1020.06 1020.18 1020.26 1020.31 1020.36 1020.41 1020.46 1020.53 1020.61 1020.68 1020.74 1020.81 1020.86 1020.91 1020.95 1021.00 1021.04 1021.08 1021.11
1017.34 1017.44 1017.49 1017.52 1017.53 1017.53 1017.55 1017.58 1017.62 1017.66 1017.70 1017.73 1017.75 1017.77 1017.80 1017.86 1017.97 1018.13 1018.34 1018.59 1018.86 1019.14 1019.39 1019.61 1019.78 1019.90 1019.99 1020.05 1020.10 1020.14 1020.19 1020.24 1020.29 1020.34 1020.39 1020.43 1020.48 1020.54 1020.59 1020.66 1020.72 1020.79 1020.85
1017.26 1017.36 1017.44 1017.50 1017.55 1017.60 1017.66 1017.73 1017.81 1017.88 1017.95 1018.00 1018.03 1018.05 1018.08 1018.12 1018.20 1018.30 1018.45 1018.64 1018.84 1019.05 1019.25 1019.42 1019.56 1019.66 1019.74 1019.79 1019.82 1019.84 1019.86 1019.88 1019.90 1019.93 1019.96 1019.99 1020.04 1020.11 1020.18 1020.28 1020.38 1020.48 1020.58
1017.10 1017.20 1017.31 1017.41 1017.52 1017.63 1017.75 1017.88 1018.00 1018.11 1018.20 1018.27 1018.33 1018.36 1018.40 1018.44 1018.49 1018.57 1018.68 1018.80 1018.95 1019.09 1019.23 1019.35 1019.45 1019.51 1019.55 1019.57 1019.57 1019.56 1019.54 1019.53 1019.52 1019.52 1019.53 1019.57 1019.62 1019.70 1019.80 1019.93 1020.06 1020.20 1020.34
1016.87 1016.97 1017.09 1017.24 1017.40 1017.58 1017.76 1017.94 1018.10 1018.24 1018.37 1018.47 1018.55 1018.61 1018.67 1018.72 1018.78 1018.86 1018.94 1019.04 1019.14 1019.24 1019.32 1019.39 1019.44 1019.46 1019.46 1019.44 1019.41 1019.36 1019.31 1019.26 1019.23 1019.20 1019.21 1019.23 1019.30 1019.39 1019.51 1019.66 1019.83 1020.01 1020.18
1016.59 1016.67 1016.81 1016.98 1017.19 1017.41 1017.64 1017.86 1018.05 1018.23 1018.38 1018.51 1018.62 1018.72 1018.81 1018.90 1018.99 1019.09 1019.18 1019.27 1019.35 1019.42 1019.48 1019.51 1019.52 1019.51 1019.48 1019.43 1019.37 1019.29 1019.22 1019.14 1019.09 1019.05 1019.04 1019.06 1019.13 1019.23 1019.37 1019.54 1019.72 1019.92 1020.10
1016.28 1016.34 1016.47 1016.66 1016.89 1017.14 1017.39 1017.63 1017.85 1018.04 1018.21 1018.36 1018.50 1018.64 1018.78 1018.92 1019.06 1019.19 1019.31 1019.43 1019.52 1019.59 1019.64 1019.66 1019.66 1019.64 1019.60 1019.54 1019.46 1019.38 1019.29 1019.21 1019.14 1019.08 1019.06 1019.08 1019.14 1019.24 1019.38 1019.55 1019.74 1019.94 1020.13
1015.98 1016.01 1016.12 1016.30 1016.53 1016.78 1017.04 1017.28 1017.50 1017.70 1017.88 1018.05 1018.22 1018.39 1018.57 1018.76 1018.95 1019.14 1019.31 1019.46 1019.58 1019.68 1019.75 1019.80 1019.82 1019.81 1019.79 1019.75 1019.69 1019.62 1019.54 1019.45 1019.37 1019.31 1019.28 1019.28 1019.33 1019.41 1019.53 1019.69 1019.87 1020.06 1020.24
1015.71 1015.71 1015.79 1015.95 1016.16 1016.40 1016.65 1016.88 1017.09 1017.28 1017.46 1017.63 1017.81 1018.01 1018.23 1018.47 1018.71 1018.94 1019.16 1019.36 1019.54 1019.68 1019.80 1019.89 1019.96 1020.00 1020.03 1020.03 1020.02 1019.97 1019.91 1019.84 1019.76 1019.70 1019.65 1019.63 1019.65 1019.70 1019.80 1019.93 1020.08 1020.25 1020.43
1015.48 1015.45 1015.50 1015.64 1015.83 1016.04 1016.27 1016.48 1016.68 1016.85 1017.02 1017.19 1017.38 1017.60 1017.84 1018.10 1018.38 1018.65 1018.92 1019.17 1019.39 1019.59 1019.78 1019.94 1020.08 1020.20 1020.30 1020.37 1020.41 1020.41 1020.38 1020.33 1020.25 1020.18 1020.11 1020.06 1020.05 1020.08 1020.14 1020.24 1020.37 1020.51 1020.67
1015.28 1015.23 1015.26 1015.37 1015.54 1015.74 1015.95 1016.14 1016.32 1016.48 1016.64 1016.80 1016.99 1017.21 1017.46 1017.73 1018.03 1018.33 1018.63 1018.92 1019.19 1019.46 1019.71 1019.95 1020.18 1020.39 1020.57 1020.72 1020.82 1020.88 1020.89 1020.85 1020.79 1020.70 1020.62 1020.55 1020.51 1020.50 1020.53 1020.60 1020.71 1020.84 1020.98
1015.09 1015.03 1015.06 1015.16 1015.31 1015.50 1015.70 1015.88 1016.05 1016.20 1016.35 1016.51 1016.69 1016.89 1017.14 1017.41 1017.71 1018.02 1018.34 1018.66 1018.99 1019.31 1019.64 1019.96 1020.28 1020.58 1020.85 1021.07 1021.24 1021.35 1021.39 1021.38 1021.32 1021.23 1021.13 1021.05 1020.99 1020.96 1020.97 1021.02 1021.11 1021.23 1021.37
1014.90 1014.84 1014.87 1014.97 1015.13 1015.31 1015.51 1015.69 1015.86 1016.01 1016.15 1016.30 1016.47 1016.66 1016.89 1017.15 1017.44 1017.76 1018.09 1018.44 1018.81 1019.19 1019.58 1019.98 1020.38 1020.76 1021.11 1021.41 1021.64 1021.79 1021.86 1021.87 1021.82 1021.73 1021.64 1021.55 1021.48 1021.45 1021.46 1021.51 1021.60 1021.72 1021.85
1014.69 1014.65 1014.69 1014.80 1014.96 1015.16 1015.36 1015.55 1015.72 1015.87 1016.01 1016.16 1016.32 1016.50 1016.71 1016.96 1017.23 1017.54 1017.88 1018.25 1018.65 1019.08 1019.53 1020.00 1020.47 1020.92 1021.34 1021.69 1021.97 1022.16 1022.26 1022.29 1022.26 1022.19 1022.11 1022.04 1021.99 1021.98 1022.01 1022.08 1022.18 1022.30 1022.43
1014.50 1014.47 1014.52 1014.64 1014.82 1015.02 1015.22 1015.42 1015.60 1015.75 1015.90 1016.04 1016.18 1016.35 1016.55 1016.78 1017.05 1017.35 1017.69 1018.07 1018.50 1018.96 1019.46 1019.98 1020.51 1021.02 1021.48 1021.88 1022.19 1022.42 1022.55 1022.61 1022.61 1022.57 1022.53 1022.50 1022.49 1022.52 1022.59 1022.69 1022.82 1022.95 1023.09
1014.34 1014.32 1014.38 1014.51 1014.68 1014.88 1015.09 1015.28 1015.46 1015.61 1015.75 1015.89 1016.03 1016.19 1016.37 1016.59 1016.84 1017.14 1017.48 1017.87 1018.31 1018.80 1019.33 1019.89 1020.45 1020.99 1021.49 1021.92 1022.27 1022.52 1022.69 1022.79 1022.82 1022.84 1022.85 1022.88 1022.93 1023.03 1023.16 1023.31 1023.47 1023.63 1023.78
1014.24 1014.23 1014.29 1014.41 1014.57 1014.76 1014.95 1015.13 1015.29 1015.44 1015.57 1015.70 1015.83 1015.98 1016.15 1016.35 1016.60 1016.89 1017.22 1017.62 1018.06 1018.56 1019.10 1019.66 1020.24 1020.80 1021.32 1021.77 1022.14 1022.43 1022.63 1022.77 1022.86 1022.94 1023.02 1023.12 1023.26 1023.43 1023.62 1023.84 1024.05 1024.25 1024.42
1014.23 1014.22 1014.27 1014.37 1014.50 1014.66 1014.82 1014.97 1015.10 1015.23 1015.34 1015.46 1015.58 1015.72 1015.89 1016.08 1016.32 1016.59 1016.92 1017.29 1017.72 1018.21 1018.73 1019.29 1019.86 1020.42 1020.94 1021.40 1021.79 1022.10 1022.35 1022.54 1022.69 1022.83 1022.99 1023.17 1023.39 1023.64 1023.91 1024.19 1024.46 1024.71 1024.91
1014.31 1014.30 1014.33 1014.39 1014.48 1014.59 1014.70 1014.81 1014.92 1015.01 1015.11 1015.21 1015.32 1015.46 1015.61 1015.80 1016.02 1016.27 1016.57 1016.92 1017.32 1017.76 1018.25 1018.78 1019.32 1019.85 1020.36 1020.82 1021.22 1021.56 1021.84 1022.08 1022.29 1022.50 1022.73 1022.98 1023.28 1023.60 1023.94 1024.30 1024.63 1024.93 1025.18
1014.45 1014.43 1014.43 1014.46 1014.51 1014.56 1014.62 1014.69 1014.75 1014.82 1014.89 1014.98 1015.09 1015.22 1015.37 1015.55 1015.74 1015.98 1016.24 1016.54 1016.88 1017.27 1017.70 1018.17 1018.66 1019.15 1019.63 1020.08 1020.48 1020.84 1021.15 1021.43 1021.70 1021.96 1022.24 1022.56 1022.91 1023.29 1023.70 1024.10 1024.50 1024.86 1025.17
1014.58 1014.56 1014.55 1014.55 1014.55 1014.56 1014.57 1014.59 1014.62 1014.66 1014.72 1014.81 1014.92 1015.05 1015.20 1015.36 1015.54 1015.74 1015.95 1016.20 1016.47 1016.79 1017.14 1017.53 1017.96 1018.40 1018.84 1019.26 1019.66 1020.03 1020.36 1020.67 1020.97 1021.27 1021.59 1021.94 1022.32 1022.74 1023.18 1023.64 1024.08 1024.50 1024.88
1014.65 1014.66 1014.64 1014.62 1014.59 1014.56 1014.53 1014.52 1014.52 1014.55 1014.61 1014.70 1014.82 1014.95 1015.11 1015.27 1015.43 1015.59 1015.76 1015.94 1016.14 1016.37 1016.64 1016.95 1017.30 1017.68 1018.07 1018.47 1018.85 1019.22 1019.56 1019.88 1020.19 1020.51 1020.84 1021.20 1021.59 1022.02 1022.48 1022.95 1023.43 1023.90 1024.34
1014.61 1014.65 1014.65 1014.63 1014.59 1014.54 1014.49 1014.45 1014.44 1014.47 1014.54 1014.64 1014.77 1014.93 1015.09 1015.25 1015.40 1015.53 1015.66 1015.78 1015.90 1016.06 1016.25 1016.48 1016.76 1017.07 1017.42 1017.78 1018.15 1018.50 1018.84 1019.16 1019.47 1019.78 1020.10 1020.44 1020.82 1021.23 1021.67 1022.15 1022.63 1023.12 1023.60
1014.42 1014.51 1014.56 1014.55 1014.52 1014.46 1014.41 1014.37 1014.36 1014.39 1014.46 1014.58 1014.74 1014.91 1015.09 1015.26 1015.40 1015.51 1015.60 1015.67 1015.74 1015.83 1015.96 1016.12 1016.34 1016.61 1016.92 1017.25 1017.60 1017.94 1018.26 1018.58 1018.87 1019.16 1019.45 1019.76 1020.09 1020.46 1020.87 1021.31 1021.78 1022.27 1022.76
1014.10 1014.26 1014.35 1014.39 1014.38 1014.33 1014.28 1014.24 1014.24 1014.27 1014.36 1014.49 1014.66 1014.84 1015.03 1015.20 1015.34 1015.44 1015.51 1015.55 1015.59 1015.64 1015.72 1015.85 1016.03 1016.26 1016.55 1016.86 1017.19 1017.52 1017.84 1018.13 1018.41 1018.66 1018.92 1019.18 1019.47 1019.78 1020.14 1020.53 1020.96 1021.41 1021.87
Thickness
5749 5748 5747 5746 5748 5748 5747 5747 5747 5747 5747 5747 5747 5747 5747 5746 5746 5745 5741 5737 5735 5733 5732 5731 5730 5728 5727 5725 5724 5722 5720 5719 5718 5716 5715 5714 5712 5711 5710 5709 5708 5707 5707
5748 5748 5748 5747 5748 5749 5749 5748 5748 5747 5747 5747 5747 5746 5746 5746 5744 5743 5743 5739 5736 5734 5733 5731 5730 5729 5727 5726 5724 5722 5720 5719 5718 5717 5715 5714 5713 5711 5710 5709 5708 5707 5706
5747 5748 5749 5748 5748 5748 5747 5748 5748 5747 5747 5747 5746 5746 5745 5744 5744 5742 5742 5741 5739 5735 5734 5732 5730 5729 5727 5726 5724 5722 5721 5719 5718 5717 5715 5714 5712 5711 5710 5709 5708 5707 5705
5747 5747 5749 5750 5748 5749 5748 5748 5748 5748 5747 5746 5746 5746 5746 5744 5743 5742 5742 5741 5740 5740 5736 5733 5731 5729 5728 5726 5725 5723 5721 5720 5718 5717 5715 5714 5712 5711 5710 5708 5707 5706 5705
5748 5748 5748 5748 5748 5749 5749 5750 5750 5748 5745 5745 5746 5745 5746 5745 5744 5744 5743 5742 5741 5739 5738 5735 5732 5730 5728 5727 5725 5724 5722 5720 5718 5716 5715 5713 5712 5710 5709 5708 5707 5705 5704
5749 5749 5749 5748 5749 5749 5748 5748 5746 5746 5745 5745 5746 5746 5746 5746 5745 5744 5743 5742 5741 5740 5739 5737 5735 5732 5729 5727 5725 5724 5722 5720 5718 5716 5715 5713 5711 5710 5708 5707 5705 5704 5703
5751 5749 5750 5749 5749 5749 5748 5749 5747 5745 5745 5745 5743 5742 5744 5745 5744 5742 5742 5741 5740 5738 5737 5736 5735 5733 5731 5726 5724 5723 5722 5720 5718 5716 5714 5712 5711 5709 5707 5705 5704 5702 5701
5752 5752 5750 5751 5750 5748 5748 5747 5745 5744 5744 5745 5741 5738 5736 5737 5739 5742 5740 5738 5737 5736 5736 5735 5733 5730 5729 5727 5724 5722 5720 5718 5717 5715 5713 5711 5709 5707 5706 5704 5702 5701 5700
5753 5752 5751 5751 5750 5750 5749 5747 5746 5744 5742 5744 5744 5739 5734 5731 5733 5736 5736 5735 5734 5733 5733 5731 5729 5727 5726 5724 5723 5719 5718 5716 5715 5713 5711 5709 5707 5706 5704 5702 5700 5699 5698
5754 5753 5752 5751 5750 5750 5748 5747 5749 5746 5742 5741 5743 5742 5741 5739 5732 5729 5731 5732 5731 5729 5729 5728 5727 5724 5722 5720 5718 5716 5714 5712 5711 5710 5708 5707 5705 5704 5701 5699 5698 5696 5694
5754 5753 5751 5750 5749 5749 5747 5746 5745 5744 5744 5742 5741 5741 5739 5737 5737 5730 5725 5725 5727 5727 5726 5724 5723 5721 5719 5716 5714 5712 5710 5708 5707 5705 5704 5702 5701 5700 5698 5696 5694 5692 5691
5755 5752 5751 5749 5748 5747 5745 5744 5743 5743 5742 5741 5740 5740 5737 5735 5733 5730 5725 5722 5721 5721 5722 5720 5719 5716 5714 5712 5709 5706 5705 5703 5702 5700 5698 5696 5695 5694 5692 5691 5689 5687 5686
5755 5751 5750 5748 5747 5745 5744 5743 5742 5741 5740 5738 5737 5738 5738 5736 5735 5731 5726 5723 5719 5718 5716 5715 5714 5711 5709 5706 5703 5700 5698 5697 5696 5694 5692 5690 5688 5687 5685 5683 5682 5680 5679
5754 5751 5748 5746 5745 5744 5743 5741 5741 5740 5738 5737 5737 5735 5735 5735 5734 5731 5727 5722 5716 5714 5712 5710 5708 5705 5702 5700 5697 5694 5692 5690 5689 5687 5685 5683 5681 5679 5677 5675 5673 5672 5670
5754 5750 5748 5745 5744 5742 5741 5740 5739 5737 5736 5735 5734 5733 5732 5732 5731 5730 5728 5724 5717 5711 5706 5705 5702 5699 5696 5694 5691 5689 5686 5683 5681 5680 5677 5675 5673 5671 5669 5667 5665 5663 5662
5752 5749 5747 5745 5743 5740 5739 5737 5737 5734 5732 5731 5730 5728 5727 5728 5727 5726 5724 5722 5719 5714 5706 5703 5698 5695 5692 5690 5685 5683 5680 5677 5674 5672 5670 5667 5665 5663 5661 5658 5657 5654 5653
5750 5747 5745 5743 5740 5738 5736 5734 5733 5731 5729 5727 5726 5725 5722 5721 5721 5721 5720 5717 5715 5711 5703 5698 5693 5689 5685 5683 5680 5678 5676 5673 5669 5665 5663 5660 5657 5655 5652 5650 5648 5646 5644
5749 5746 5743 5741 5738 5735 5733 5731 5729 5727 5725 5722 5721 5720 5718 5718 5715 5715 5714 5711 5708 5705 5700 5692 5687 5684 5680 5677 5674 5672 5671 5668 5664 5659 5655 5652 5650 5647 5644 5642 5639 5637 5635
5747 5744 5741 5738 5735 5732 5729 5727 5725 5723 5721 5719 5717 5715 5714 5712 5710 5710 5708 5706 5704 5702 5697 5690 5685 5680 5676 5672 5669 5667 5664 5661 5658 5653 5648 5644 5641 5638 5635 5633 5630 5628 5625
5745 5742 5738 5735 5732 5729 5726 5724 5722 5719 5717 5715 5713 5711 5709 5708 5706 5705 5703 5700 5698 5695 5691 5687 5681 5676 5671 5667 5665 5662 5658 5655 5652 5648 5643 5638 5634 5630 5627 5624 5621 5618 5616
5743 5739 5736 5733 5730 5727 5724 5720 5718 5716 5713 5710 5708 5706 5703 5700 5697 5697 5697 5694 5692 5690 5687 5682 5676 5671 5666 5661 5660 5657 5653 5650 5645 5642 5638 5634 5630 5627 5622 5617 5613 5610 5607
5740 5736 5733 5729 5726 5723 5716 5713 5713 5711 5709 5706 5703 5701 5699 5695 5691 5688 5686 5684 5682 5681 5678 5675 5670 5665 5660 5657 5654 5651 5647 5644 5638 5635 5632 5628 5625 5621 5617 5612 5606 5601 5598
5737 5732 5729 5725 5721 5715 5710 5708 5706 5706 5704 5700 5698 5695 5694 5690 5686 5684 5679 5675 5672 5669 5667 5666 5663 5659 5655 5651 5648 5644 5639 5637 5633 5630 5625 5621 5617 5614 5609 5604 5598 5593 5590
5732 5728 5724 5721 5717 5711 5706 5703 5701 5700 5698 5694 5691 5688 5685 5682 5679 5676 5674 5670 5667 5663 5660 5657 5654 5651 5648 5644 5640 5637 5633 5629 5625 5621 5617 5614 5611 5607 5603 5596 5590 5586 5582
5727 5723 5720 5716 5711 5706 5700 5697 5694 5695 5691 5687 5684 5680 5677 5674 5667 5665 5665 5662 5659 5655 5650 5646 5643 5640 5636 5633 5630 5630 5627 5625 5620 5616 5611 5608 5604 5599 5595 5590 5584 5579 5575
5723 5720 5715 5711 5706 5701 5694 5691 5687 5690 5685 5681 5677 5673 5667 5664 5659 5656 5657 5654 5650 5647 5645 5641 5636 5632 5629 5626 5622 5621 5621 5618 5615 5611 5604 5599 5596 5592 5588 5584 5580 5575 5570